Regional Weather Roundup
Issued by NWS

Home | Current Version | Previous Version | Text Only | Print | Product List | Glossary Off
Versions: 1 2 3 4 5 6 7 8 9 10 11 12 13 14 15 16 17 18 19 20 21 22 23 24 25 26 27 28 29 30 31 32 33 34 35 36 37 38 39 40 41 42 43 44 45 46 47 48 49 50

284
ASUS45 KSLC 192110
RWRUT

UTAH REGIONAL WEATHER ROUNDUP
NATIONAL WEATHER SERVICE SALT LAKE CITY UT
200 PM MST SUN FEB 19 2017

UTZ001>011-023>025-192200-

NORTHERN UTAH

CITY           SKY/WX    TMP DP  RH WIND       PRES   REMARKS
BRIGHAM CITY     N/A     50  37  59 S3        29.70S
HILL AFB       MOSUNNY   49  38  65 W8        29.70S
LOGAN          PTSUNNY   51  37  58 NE5       29.68F
OGDEN          PTSUNNY   51  38  60 SW10      29.69S
SALT LAKE CITY PTSUNNY   48  40  73 S12       29.71R
TOOELE VALLEY  PTSUNNY   52  37  58 N7        29.70S
WENDOVER       PTSUNNY   55  34  44 SW10G16   29.69S
HEBER CITY     LGT SNOW  37  34  87 CALM      29.72R
WEST JORDAN    CLOUDY    51  47  86 E6        29.72S

$$

UTZ011>015-024>027-192200-

CENTRAL/NORTHEAST UTAH

CITY           SKY/WX    TMP DP  RH WIND       PRES   REMARKS
PROVO AIRPORT  LGT RAIN  44  40  85 E6        29.74R
MOAB/CANYONLAN LGT RAIN  44  41  89 W10       29.75S
DELTA          CLOUDY    48  34  57 W7G30     29.72R
PRICE          LGT RAIN  38  37  97 E8        29.74S WCI  32
RICHFIELD      PTSUNNY   54  30  40 SW16      29.74F
ROOSEVELT      CLOUDY    45  37  76 CALM      29.73S
VERNAL         LGT RAIN  39  37  92 CALM      29.71F

$$

UTZ013>016-019>022-027-192200-

SOUTHERN UTAH

CITY           SKY/WX    TMP DP  RH WIND       PRES   REMARKS
BRYCE CANYON   LGT SNOW  36  31  82 W5        29.81S WCI  32
CEDAR CITY     MOSUNNY   47  35  63 SW21      29.80R
MILFORD        CLOUDY    51  36  56 SW24G32   29.76S
ST GEORGE      CLOUDY    53  43  68 SW10      29.86R
HANKSVILLE     CLOUDY    50  41  71 S13       29.76S
KANAB          CLOUDY    45  41  87 W10       29.89R FOG
BLANDING       CLOUDY    43  36  77 W18G24    29.88S

$$

REGIONAL REPORTS     COLORADO/ARIZONA

CITY           SKY/WX    TMP DP  RH WIND       PRES   REMARKS
CRAIG, CO      CLOUDY    44  30  57 N3        29.70S
GRAND JUNCTION LGT RAIN  43  43 100 NW14      29.77R
RIFLE, CO      CLOUDY    48  36  63 W22G32    29.69S
MONTROSE, CO   CLOUDY    42  34  73 E12       29.79S
CORTEZ, CO     CLOUDY    40  37  89 E12       29.83S WCI  33
COLORADO CITY  CLOUDY    50  41  71 W14G21    29.88S
PAGE, AZ       CLOUDY    47  37  68 VRB5      29.82F
GRAND CANYON   LGT RAIN  37  36  96 SW12G21   29.88S FOG     WCI  29
KINGMAN, AZ    PTSUNNY   52  40  63 SW16      29.90S
FLAGSTAFF, AZ  CLOUDY    35  33  92 SW12      29.89S WCI  27

$$

REGIONAL REPORTS    NEVADA/IDAHO/WYOMING

CITY           SKY/WX    TMP DP  RH WIND       PRES   REMARKS
LAS VEGAS, NV  MOSUNNY   61  38  42 S14G21    29.81F
ELY, NY        MOSUNNY   46  31  55 SW14      29.77S
ELKO, NV       PTSUNNY   52  28  39 SW17      29.71R
POCATELLO, ID  LGT RAIN  42  36  79 W13       29.68R
BURLEY, ID     LGT RAIN  47  37  68 NE6       29.63F
FORT BRIDGER,  CLOUDY    39  36  87 W14       29.73R WCI  31
EVANSTON, WY   CLOUDY    35  31  85 SW10      29.71S WCI  27
ROCK SPRINGS,  LGT SNOW  35  32  88 W15       29.70S FOG     WCI  25
KEMMERER, WY     N/A     36  30  80 W13       29.69S WCI  27

$$




USA.gov is the U.S. government's official web portal to all federal, state and local government web resources and services.